When you browse on this site, cookies collect data to enhance your experience and personalize the content and advertising you see.
Visit our Privacy Policy to learn more. By continuing to use the site, you agree to this use of cookies and data.
  • In Hungary
  • List of Countries
  • For 7 days
  • Water Temperature
  • Satellite Maps
  • Weather Map
  • News
  • Weather Widgets
  • user-avatar
    Login

    Hourly Weather Luboń

    Today, 20 June, Thursday

    Time Temperature Precipitation Wind Pressure Humidity
    00:00 +20°C° 0 mm 2 mps 736 mmHg 73%
    01:00 +19°C° 0 mm 3 mps 736 mmHg 72%
    02:00 +19°C° 0.1 mm 3 mps 736 mmHg 73%
    03:00 +19°C° 0.1 mm 2 mps 736 mmHg 74%
    04:00 +19°C° 0.1 mm 2 mps 736 mmHg 75%
    05:00 +20°C° 0.1 mm 3 mps 736 mmHg 74%
    06:00 +22°C° 0.1 mm 3 mps 737 mmHg 74%
    07:00 +24°C° 0 mm 2 mps 737 mmHg 76%
    08:00 +25°C° 0.2 mm 2 mps 737 mmHg 72%
    09:00 +26°C° 0.2 mm 3 mps 737 mmHg 68%
    10:00 +27°C° 0.2 mm 3 mps 737 mmHg 65%
    11:00 +27°C° 0.2 mm 4 mps 737 mmHg 62%
    12:00 +28°C° 0.2 mm 4 mps 737 mmHg 59%
    13:00 +28°C° 0 mm 4 mps 737 mmHg 59%
    14:00 +28°C° 0.3 mm 4 mps 737 mmHg 59%
    15:00 +28°C° 0.3 mm 3 mps 737 mmHg 58%
    16:00 +28°C° 0.3 mm 3 mps 737 mmHg 58%
    17:00 +26°C° 0.2 mm 3 mps 737 mmHg 64%
    18:00 +25°C° 0.2 mm 2 mps 737 mmHg 71%
    19:00 +24°C° 0.2 mm 2 mps 738 mmHg 77%
    20:00 +23°C° 0.4 mm 2 mps 738 mmHg 80%
    21:00 +21°C° 0.4 mm 1 mps 738 mmHg 83%
    22:00 +20°C° 0.4 mm 1 mps 738 mmHg 86%
    23:00 +20°C° 0.2 mm 1 mps 739 mmHg 87%

    Tomorrow, 21 June, Friday

    Time Temperature Precipitation Wind Pressure Humidity
    00:00 +19°C° 0.2 mm 1 mps 739 mmHg 88%
    01:00 +19°C° 0.2 mm 1 mps 739 mmHg 89%
    02:00 +19°C° 0 mm 1 mps 739 mmHg 89%
    03:00 +18°C° 0 mm 1 mps 739 mmHg 89%
    04:00 +17°C° 0 mm 2 mps 739 mmHg 90%
    05:00 +18°C° 0 mm 2 mps 740 mmHg 87%
    06:00 +20°C° 0 mm 2 mps 740 mmHg 83%
    07:00 +21°C° 0 mm 2 mps 740 mmHg 80%
    08:00 +23°C° 0.4 mm 2 mps 741 mmHg 77%
    09:00 +24°C° 0.4 mm 3 mps 741 mmHg 73%
    10:00 +25°C° 0.4 mm 3 mps 741 mmHg 69%
    11:00 +25°C° 0.5 mm 3 mps 741 mmHg 69%
    12:00 +25°C° 0.5 mm 3 mps 741 mmHg 68%
    13:00 +26°C° 0.5 mm 3 mps 741 mmHg 67%
    14:00 +25°C° 0.6 mm 3 mps 741 mmHg 68%
    15:00 +25°C° 0.6 mm 3 mps 741 mmHg 69%
    16:00 +25°C° 0.6 mm 3 mps 741 mmHg 70%
    17:00 +24°C° 0.1 mm 3 mps 741 mmHg 73%
    18:00 +23°C° 0.1 mm 2 mps 741 mmHg 76%
    19:00 +21°C° 0.1 mm 2 mps 741 mmHg 78%
    20:00 +20°C° 0 mm 2 mps 742 mmHg 81%
    21:00 +20°C° 0 mm 1 mps 742 mmHg 83%
    22:00 +18°C° 0 mm 1 mps 743 mmHg 86%
    23:00 +18°C° 0 mm 1 mps 743 mmHg 88%

    Day after tomorrow, 22 June, Saturday

    Time Temperature Precipitation Wind Pressure Humidity
    00:00 +16°C° 0 mm 1 mps 743 mmHg 90%
    01:00 +15°C° 0 mm 1 mps 743 mmHg 93%
    02:00 +15°C° 0 mm 1 mps 744 mmHg 94%
    03:00 +15°C° 0 mm 1 mps 744 mmHg 96%
    04:00 +14°C° 0 mm 1 mps 744 mmHg 97%
    05:00 +15°C° 0 mm 2 mps 744 mmHg 90%
    06:00 +16°C° 0 mm 2 mps 745 mmHg 84%
    07:00 +18°C° 0 mm 3 mps 745 mmHg 77%
    08:00 +19°C° 0 mm 3 mps 745 mmHg 72%
    09:00 +20°C° 0 mm 4 mps 745 mmHg 66%
    10:00 +21°C° 0 mm 4 mps 745 mmHg 61%
    11:00 +21°C° 0 mm 4 mps 745 mmHg 60%
    12:00 +22°C° 0 mm 4 mps 745 mmHg 59%
    13:00 +22°C° 0 mm 4 mps 744 mmHg 59%
    14:00 +22°C° 0 mm 4 mps 744 mmHg 59%
    15:00 +22°C° 0 mm 5 mps 744 mmHg 60%
    16:00 +22°C° 0 mm 5 mps 743 mmHg 61%
    17:00 +21°C° 0 mm 5 mps 743 mmHg 64%
    18:00 +21°C° 0 mm 4 mps 743 mmHg 67%
    19:00 +20°C° 0 mm 4 mps 743 mmHg 70%
    20:00 +19°C° 0 mm 4 mps 743 mmHg 71%
    21:00 +19°C° 0 mm 4 mps 744 mmHg 71%
    22:00 +18°C° 0 mm 4 mps 744 mmHg 71%
    23:00 +18°C° 0 mm 4 mps 744 mmHg 76%

    23 June, Sunday

    Time Temperature Precipitation Wind Pressure Humidity
    00:00 +17°C° 0 mm 3 mps 744 mmHg 80%
    01:00 +16°C° 0 mm 3 mps 744 mmHg 84%
    02:00 +16°C° 0 mm 3 mps 744 mmHg 83%
    03:00 +14°C° 0 mm 3 mps 744 mmHg 81%
    04:00 +14°C° 0 mm 4 mps 744 mmHg 79%
    05:00 +14°C° 0 mm 4 mps 744 mmHg 80%
    06:00 +15°C° 0 mm 4 mps 744 mmHg 80%
    07:00 +15°C° 0 mm 4 mps 745 mmHg 80%
    08:00 +17°C° 0 mm 4 mps 745 mmHg 75%
    09:00 +19°C° 0 mm 5 mps 745 mmHg 69%
    10:00 +20°C° 0 mm 5 mps 745 mmHg 64%
    11:00 +21°C° 0 mm 5 mps 745 mmHg 60%
    12:00 +21°C° 0 mm 5 mps 745 mmHg 56%
    13:00 +22°C° 0 mm 5 mps 745 mmHg 52%
    14:00 +22°C° 0 mm 4 mps 745 mmHg 54%
    15:00 +22°C° 0 mm 4 mps 745 mmHg 56%
    16:00 +21°C° 0 mm 3 mps 745 mmHg 58%
    17:00 +21°C° 0 mm 3 mps 745 mmHg 62%
    18:00 +21°C° 0 mm 3 mps 745 mmHg 67%
    19:00 +20°C° 0 mm 3 mps 745 mmHg 72%
    20:00 +19°C° 0 mm 2 mps 745 mmHg 77%
    21:00 +18°C° 0 mm 2 mps 746 mmHg 82%
    22:00 +16°C° 0 mm 2 mps 746 mmHg 88%
    23:00 +16°C° 0 mm 2 mps 746 mmHg 89%

    24 June, Monday

    Time Temperature Precipitation Wind Pressure Humidity
    00:00 +15°C° 0 mm 2 mps 746 mmHg 91%
    01:00 +14°C° 0 mm 1 mps 747 mmHg 93%
    02:00 +14°C° 0 mm 1 mps 747 mmHg 94%
    03:00 +14°C° 0 mm 2 mps 747 mmHg 95%
    04:00 +13°C° 0 mm 2 mps 747 mmHg 96%
    05:00 +15°C° 0 mm 2 mps 747 mmHg 91%
    06:00 +17°C° 0 mm 2 mps 747 mmHg 86%
    07:00 +19°C° 0 mm 2 mps 748 mmHg 82%
    08:00 +20°C° 0 mm 3 mps 748 mmHg 77%
    09:00 +21°C° 0 mm 3 mps 748 mmHg 73%
    10:00 +24°C° 0 mm 3 mps 748 mmHg 68%
    11:00 +25°C° 0 mm 4 mps 748 mmHg 66%
    12:00 +26°C° 0 mm 4 mps 748 mmHg 65%
    13:00 +26°C° 0 mm 4 mps 748 mmHg 63%
    14:00 +26°C° 0 mm 4 mps 748 mmHg 63%
    15:00 +27°C° 0 mm 4 mps 747 mmHg 63%
    16:00 +27°C° 0 mm 4 mps 747 mmHg 63%
    17:00 +26°C° 0 mm 3 mps 747 mmHg 68%
    18:00 +25°C° 0 mm 3 mps 747 mmHg 74%
    19:00 +24°C° 0 mm 2 mps 747 mmHg 79%
    20:00 +23°C° 0 mm 2 mps 748 mmHg 84%
    21:00 +21°C° 0 mm 2 mps 748 mmHg 88%
    22:00 +19°C° 0 mm 2 mps 748 mmHg 93%
    23:00 +19°C° 0 mm 2 mps 748 mmHg 94%

    25 June, Tuesday

    Time Temperature Precipitation Wind Pressure Humidity
    00:00 +19°C° 0 mm 2 mps 748 mmHg 96%
    01:00 +18°C° 0 mm 2 mps 748 mmHg 97%
    02:00 +18°C° 0 mm 2 mps 748 mmHg 97%
    03:00 +18°C° 0 mm 2 mps 748 mmHg 97%
    04:00 +17°C° 0 mm 2 mps 748 mmHg 97%
    05:00 +19°C° 0 mm 2 mps 748 mmHg 94%
    06:00 +20°C° 0 mm 2 mps 748 mmHg 90%
    07:00 +21°C° 0 mm 2 mps 749 mmHg 86%
    08:00 +22°C° 0 mm 3 mps 749 mmHg 82%
    09:00 +25°C° 0 mm 3 mps 749 mmHg 78%
    10:00 +26°C° 0 mm 4 mps 749 mmHg 74%
    11:00 +27°C° 0 mm 4 mps 749 mmHg 71%
    12:00 +28°C° 0 mm 4 mps 749 mmHg 68%
    13:00 +29°C° 0 mm 4 mps 749 mmHg 66%
    14:00 +29°C° 0 mm 4 mps 748 mmHg 65%
    15:00 +29°C° 0 mm 4 mps 748 mmHg 64%
    16:00 +29°C° 0 mm 4 mps 748 mmHg 64%
    17:00 +28°C° 0.1 mm 3 mps 748 mmHg 69%
    18:00 +27°C° 0.1 mm 3 mps 748 mmHg 74%
    19:00 +27°C° 0.1 mm 2 mps 748 mmHg 79%
    20:00 +25°C° 0 mm 2 mps 748 mmHg 83%
    21:00 +24°C° 0 mm 2 mps 748 mmHg 88%
    22:00 +21°C° 0 mm 2 mps 748 mmHg 92%
    23:00 +21°C° 0 mm 2 mps 748 mmHg 93%
    Show more